GW0118 Weather Reports


Display with metric or nautical units.
time (UTC)temp
F
wind
direction
speed
MPH
gust
MPH
rain 1hr
in
rain 24hr
in
rain mn
in
humidity
%
barometer
mb
20260507103059 54 314 2.0 8.0 0.00 0.00 0.00 70 1012.8
20260507101603 53 63 2.0 8.0 0.00 0.00 0.00 70 1012.8
20260507100115 52 23 3.0 8.0 0.00 0.00 0.00 74 1012.9
20260507094607 51 54 2.0 5.0 0.00 0.00 0.00 75 1013.0
20260507093057 50 19 1.0 6.0 0.00 0.00 0.00 77 1013.0
20260507091635 50 77 3.0 6.0 0.00 0.00 0.00 77 1013.1
20260507090058 50 103 2.0 4.0 0.00 0.00 0.00 78 1012.8
20260507084610 50 63 2.0 4.0 0.00 0.00 0.00 82 1012.8
20260507083100 49 111 1.0 4.0 0.00 0.00 0.00 82 1012.7
20260507081602 49 86 2.0 4.0 0.00 0.00 0.00 80 1012.7
20260507080100 50 60 1.0 2.0 0.00 0.00 0.00 77 1012.7
20260507074604 49 0 0.0 4.0 0.00 0.00 0.00 78 1012.6
20260507073103 49 52 3.0 7.0 0.00 0.00 0.00 78 1012.4
20260507071559 49 13 1.0 9.0 0.00 0.00 0.00 80 1012.3
20260507070106 48 54 4.0 8.0 0.00 0.00 0.00 82 1012.3
20260507064559 46 61 4.0 7.0 0.00 0.00 0.00 86 1012.3
20260507063059 44 79 2.0 4.0 0.00 0.00 0.00 88 1012.1
20260507061600 44 75 2.0 4.0 0.00 0.00 0.00 89 1012.1
20260507060103 43 82 0.0 4.0 0.00 0.00 0.00 89 1012.1
20260507054559 43 65 2.0 5.0 0.00 0.00 0.00 89 1012.1
20260507053058 43 113 1.0 3.0 0.00 0.00 0.00 89 1012.1
20260507051602 43 0 0.0 2.0 0.00 0.00 0.00 89 1012.0
20260507050059 42 69 0.0 2.0 0.00 0.00 0.00 89 1012.1
20260507044616 42 0 0.0 1.0 0.00 0.00 0.00 89 1012.1
20260507041609 42 0 0.0 1.0 0.00 0.00 0.00 88 1012.4
20260507040059 42 0 0.0 1.0 0.00 0.00 0.00 89 1012.4
20260507034558 42 108 0.0 1.0 0.00 0.00 0.00 89 1012.4
20260507033058 43 118 0.0 2.0 0.00 0.00 0.00 87 1012.4
20260507031600 43 100 0.0 2.0 0.00 0.00 0.00 87 1012.5
20260507030101 43 101 2.0 7.0 0.00 0.00 0.00 87 1012.4
20260507024600 43 98 4.0 7.0 0.00 0.00 0.00 87 1012.4
20260507023109 43 78 4.0 9.0 0.00 0.00 0.00 87 1012.4
20260507021559 43 114 5.0 9.0 0.00 0.00 0.00 87 1012.4
20260507020104 44 67 5.0 8.0 0.00 0.00 0.00 86 1012.4
20260507014559 44 72 5.0 10.0 0.00 0.00 0.00 86 1012.4
20260507013100 44 48 4.0 9.0 0.00 0.00 0.00 85 1012.5
20260507011601 44 79 6.0 12.0 0.00 0.00 0.00 85 1012.6
20260507010059 44 126 5.0 8.0 0.00 0.00 0.00 85 1012.7
20260507004607 45 60 4.0 9.0 0.00 0.00 0.00 84 1012.8
20260507003116 45 47 4.0 8.0 0.00 0.00 0.00 83 1012.9
20260507001614 45 66 4.0 10.0 0.00 0.00 0.00 82 1012.9
20260507000057 45 53 7.0 12.0 0.00 0.00 0.00 81 1012.7
20260506234600 46 61 7.0 12.0 0.00 0.00 0.00 81 1012.7
20260506233058 46 34 4.0 12.0 0.00 0.00 0.00 80 1012.8
20260506231607 46 87 6.0 12.0 0.00 0.00 0.00 80 1012.7
20260506230114 46 117 5.0 12.0 0.00 0.00 0.00 80 1012.7
20260506224557 47 82 8.0 13.0 0.00 0.00 0.00 79 1012.7
20260506223104 47 79 7.0 12.0 0.00 0.00 0.00 78 1012.7
20260506221610 48 84 5.0 10.0 0.00 0.00 0.00 77 1012.7
20260506220100 48 101 3.0 7.0 0.00 0.00 0.00 77 1012.8
20260506214559 48 94 3.0 9.0 0.00 0.00 0.00 75 1012.6
20260506213103 49 77 5.0 9.0 0.00 0.00 0.00 74 1012.7
20260506211559 49 64 4.0 9.0 0.00 0.00 0.00 72 1012.8
20260506204558 50 60 3.0 7.0 0.00 0.00 0.00 63 1012.2
20260506203119 52 76 3.0 7.0 0.00 0.00 0.00 58 1012.2
20260506201558 53 61 0.0 4.0 0.00 0.00 0.00 56 1012.1
20260506200109 54 120 2.0 5.0 0.00 0.00 0.00 54 1011.8
20260506194600 54 63 2.0 4.0 0.00 0.00 0.00 53 1011.7
20260506193105 55 116 2.0 4.0 0.00 0.00 0.00 52 1011.6
20260506191559 56 112 0.0 3.0 0.00 0.00 0.00 50 1011.5
20260506184556 60 6 3.0 5.0 0.00 0.00 0.00 44 1011.3
20260506183107 61 345 1.0 5.0 0.00 0.00 0.00 41 1011.3
20260506181603 62 61 1.0 3.0 0.00 0.00 0.00 38 1011.1
20260506174557 63 277 1.0 3.0 0.00 0.00 0.00 34 1011.1
20260506173109 63 269 0.0 3.0 0.00 0.00 0.00 33 1011.2
20260506171559 61 294 1.0 5.0 0.00 0.00 0.00 39 1011.2
20260506170107 61 293 2.0 5.0 0.00 0.00 0.00 39 1011.4
20260506164625 61 264 2.0 7.0 0.00 0.00 0.00 38 1011.4
20260506163109 62 279 0.0 6.0 0.00 0.00 0.00 36 1011.4
20260506161557 61 255 3.0 6.0 0.00 0.00 0.00 38 1011.5
20260506160122 60 58 3.0 6.0 0.00 0.00 0.00 37 1011.6
20260506154558 60 198 0.0 4.0 0.00 0.00 0.00 40 1011.7
20260506153058 61 208 1.0 4.0 0.00 0.00 0.00 42 1011.7
20260506151604 60 63 1.0 2.0 0.00 0.00 0.00 40 1011.8
20260506150108 59 259 0.0 5.0 0.00 0.00 0.00 43 1012.0
20260506144610 59 29 3.0 8.0 0.00 0.00 0.00 43 1012.0
20260506143101 59 255 1.0 6.0 0.00 0.00 0.00 41 1012.1
20260506141600 59 356 3.0 11.0 0.00 0.00 0.00 41 1012.2
20260506140100 59 102 3.0 12.0 0.00 0.00 0.00 43 1012.4
20260506134601 59 28 3.0 10.0 0.00 0.06 0.00 42 1012.6
20260506133115 58 0 6.0 9.0 0.00 0.06 0.00 43 1012.8
20260506131616 58 320 5.0 12.0 0.00 0.06 0.00 44 1012.9
20260506130101 58 263 1.0 7.0 0.00 0.06 0.00 42 1012.9
20260506124601 56 0 1.0 8.0 0.00 0.07 0.00 45 1013.2
20260506123100 57 120 5.0 9.0 0.00 0.07 0.00 48 1013.1
20260506121602 55 0 4.0 9.0 0.00 0.07 0.00 50 1013.3
20260506120110 55 126 2.0 8.0 0.00 0.07 0.00 53 1013.4
20260506114600 55 0 1.0 7.0 0.00 0.07 0.00 54 1013.5
20260506113100 54 184 2.0 7.0 0.00 0.07 0.00 54 1013.6
20260506111559 53 265 5.0 9.0 0.00 0.07 0.00 56 1013.8
20260506110113 54 28 4.0 7.0 0.00 0.07 0.00 57 1013.8
20260506104615 53 10 2.0 5.0 0.00 0.07 0.00 60 1013.9